2024-226A (62185 NORAD) Tracking and Keplerian Element Data

This shows tracking and keplerian element data for the satellite.

Feedback or suggestion? Click here.




ElementValue
Catalog62185
Name2024-226A
Epoch Orbit888
Epoch Day34.82390552
Epoch Year2025
RAAN350.1139
Inclination50.0072
Eccentricity0.0056405
Argument of Perigee28.4061
Mean Anonmoly331.9881
Mean Motion13.60112527
Decay Rate-5.3E-07
L11 62185U 24226A 25034.82390552 -.00000053 00000+0 10830-3 0 9999
L22 62185 50.0072 350.1139 0056405 28.4061 331.9881 13.60112527 8886



Live tracking and technical data element details for 2024-226A (NORAD 62185). 2024-226A can be tracked NOW for your location showing map with azimuth and elevation plus other details from your city location.







IsCatalogInMostPopularTable: catalog: 62185, numindb: 9
Update: records affected: 1



GetName: 62185 2024-226A

Hit Count: updated at: Sun, 18 May 2025 23:12:44 GMT